sat.trackr.live / text

‹ back to catalog

BEIDOU-3 M10 (C30)

NORAD 43246 · 2018-029B

PAYLOAD ACTIVE UNKNOWN

§ Identity

Operator
Country
PRC
Launch date
2018-03-29
Launch site
XICLF
Launch vehicle
Mass (kg)
RCS (m²)

Purposes: nav

External: N2YO · Heavens-Above · Gunter

§ Orbital elements

Epoch: 2026-09-18T07:31:26.153760Z

Period
773.24 min
Inclination
54.1047°
Eccentricity
0.0002780
Mean motion
1.86229398 rev/d
Perigee alt
21,520.5 km
Apogee alt
21,536.0 km
Semi-major
27,906.3 km
B*
0.0000e+0
RAAN
296.7096°
Arg perigee
11.5114°
Mean anomaly
348.5513°
Rev number
5,761

§ Raw data

BEIDOU-3 M10 (C30)1 43246U 18029B   26261.31349715 -.00000034  00000+0  00000+0 0  99952 43246  54.1047 296.7096 0002780  11.5114 348.5513  1.86229398 57617

JSON: /api/v1/satellites/43246 · /tle

For live sub-satellite position, see the globe view (requires WebGL).

§ Visibility from observer

Set your observer location to see the next 7 days of passes ≥ 10°. The values pass through the URL so the page stays shareable.

No JS? Fill the form by hand. The geolocation button needs JavaScript.